[[{"header":{"parameterUnit":"m.s-1","parameterCategory":1,"la1":30.2992,"la2":30.254,"lo1":-89.0895,"lo2":-89.0443,"dy":0.0025,"dx":0.0025,"nx":19,"ny":19,"refTime":"2026-03-16T21:00:00:Z","depth":0,"parameterNumber":2,"parameterNumberName":"U-component_of_WINDS"},"data":[0,0,0,3.3731,3.3732,3.3762,3.3762,3.3816,3.3817,0,0,0,0,0,0,0,0,0,0,0,3.3732,3.3733,3.3731,3.3732,3.3762,3.3762,3.3816,3.3817,0,0,0,0,0,0,0,0,0,0,0,3.3732,3.3733,3.3734,3.3732,3.3762,3.3762,3.3816,3.3788,0,0,0,0,0,0,0,0,0,0,3.3756,3.3767,3.3733,3.3734,3.3733,3.3762,3.3762,3.3786,3.379,3.381,0,3.3831,0,3.3825,3.3822,3.3822,0,0,0,3.3725,3.3764,3.3763,3.3734,3.3733,3.3762,3.3746,3.3788,3.3792,3.3815,3.3831,3.3833,3.3826,3.3822,3.3823,3.3967,3.3968,0,0,3.3723,3.3743,3.3761,3.3766,3.3763,3.3745,3.3747,3.379,3.3809,3.3832,3.3834,3.3827,3.3823,3.3823,3.3966,3.3967,0,0,0,3.3723,3.3742,3.374,3.3764,3.3769,3.3747,3.3749,3.3807,3.3805,3.3834,3.3828,3.3823,3.3824,3.3965,3.3966,3.4036,0,0,0,3.3722,3.3742,3.3739,3.3752,3.3768,3.3788,3.3765,3.3802,3.3806,3.3827,3.3823,3.3825,3.3963,3.3966,3.4032,3.4066,0,0,0,3.3727,3.3742,3.375,3.3753,3.3766,3.3787,3.3787,3.3803,3.3803,3.3822,3.3825,3.3963,3.3965,3.4028,3.4059,3.411,0,0,0,3.3738,3.3811,3.3752,3.3831,3.3766,3.3831,3.3786,3.3833,3.3858,3.3824,3.3964,3.3966,3.4027,3.4055,3.4106,3.4156,3.4179,0,0,3.3841,3.3824,3.3869,3.3817,3.3897,3.3824,3.3915,3.3919,3.3902,3.3946,3.395,3.4033,3.4059,3.4109,3.43,3.4319,0,0,0,3.3909,3.3942,3.3959,3.3984,3.399,3.3998,3.3986,3.3988,3.4025,3.3929,3.4065,3.4079,3.4108,3.4131,3.4147,3.417,3.3978,3.3977,3.3977,3.4082,3.4059,3.4132,3.4113,3.4139,3.4127,3.4146,3.4147,3.4114,3.4147,3.4159,3.4279,3.4306,3.4318,3.4343,3.4184,3.4185,3.4185,3.4185,3.4231,3.4274,3.4232,3.4288,3.4264,3.4311,3.4304,3.428,3.432,3.4266,3.4291,3.4233,3.4339,3.4359,3.419,3.4189,3.4189,3.4188,3.4188,3.4342,3.4358,3.436,3.4396,3.4427,3.4405,3.4447,3.4423,3.44,3.4424,3.4435,3.4434,3.443,3.4431,3.4432,3.4432,3.4433,3.4433,3.4433,3.4455,3.4455,3.4494,3.4508,3.4523,3.4538,3.453,3.4543,3.4552,3.4531,3.4531,3.4496,3.4353,3.4318,3.444,3.4438,3.4438,3.4437,3.4437,3.4614,3.4575,3.4634,3.4649,3.4665,3.4698,3.4668,3.4698,3.4705,3.4727,3.4688,3.4587,3.4567,3.4554,3.4525,3.4693,3.4693,3.4693,3.4693,3.4707,3.4696,3.4752,3.4778,3.48,3.4779,3.4848,3.4843,3.4831,3.4835,3.4808,3.4767,3.4755,3.4742,3.4726,3.4698,3.4906,3.4906,3.4906,3.4804,3.4794,3.4857,3.4846,3.4858,3.4869,3.4933,3.4965,3.4943,3.4914,3.4838,3.4829,3.4762,3.4742,3.471,3.4684,3.4633,0,0]},{"header":{"parameterUnit":"m.s-1","parameterCategory":1,"la1":30.2992,"la2":30.254,"lo1":-89.0895,"lo2":-89.0443,"dy":0.0025,"dx":0.0025,"nx":19,"ny":19,"refTime":"2026-03-16T21:00:00:Z","depth":0,"parameterNumber":3,"parameterNumberName":"V-component_of_WINDS"},"data":[0,0,0,-8.8751,-8.8757,-8.9069,-8.907,-8.9473,-8.9476,0,0,0,0,0,0,0,0,0,0,0,-8.8663,-8.8666,-8.875,-8.8758,-8.9069,-8.907,-8.9472,-8.9476,0,0,0,0,0,0,0,0,0,0,0,-8.8662,-8.8665,-8.8669,-8.8759,-8.9069,-8.907,-8.9471,-8.9234,0,0,0,0,0,0,0,0,0,0,-8.8931,-8.8856,-8.8665,-8.8669,-8.8761,-8.9068,-8.907,-8.9223,-8.9249,-8.9334,0,-8.9413,0,-8.9452,-8.9504,-8.9505,0,0,0,-8.8754,-8.8834,-8.8914,-8.867,-8.8764,-8.9068,-8.8927,-8.9237,-8.9267,-8.9369,-8.9419,-8.9434,-8.9458,-8.9506,-8.9509,-9.0021,-9.0023,0,0,-8.8736,-8.8721,-8.8893,-8.8933,-8.8888,-8.8917,-8.8937,-8.9255,-8.9308,-8.9421,-8.9443,-8.9465,-8.9509,-8.9512,-9.0018,-9.0021,0,0,0,-8.869,-8.871,-8.8781,-8.8917,-8.8973,-8.8926,-8.8949,-8.9294,-8.9318,-8.9448,-8.947,-8.9512,-8.9517,-9.0015,-9.0019,-9.0134,0,0,0,-8.8679,-8.8682,-8.8774,-8.8768,-8.8967,-8.9138,-8.898,-8.9296,-8.9333,-8.9468,-8.9512,-8.9521,-9.0012,-9.0017,-9.0125,-9.019,0,0,0,-8.8641,-8.8678,-8.8725,-8.8766,-8.89,-8.9133,-8.9176,-8.9304,-8.9347,-8.9506,-8.9522,-9.0011,-9.0017,-9.0116,-9.0177,-9.0321,0,0,0,-8.8595,-8.8821,-8.8726,-8.8987,-8.8897,-8.9202,-8.9174,-8.9401,-8.9551,-8.9514,-9.0013,-9.0019,-9.0114,-9.0168,-9.0312,-9.044,-9.0492,0,0,-8.8872,-8.8854,-8.9008,-8.8933,-8.9251,-8.9155,-8.949,-8.964,-8.9668,-8.9901,-8.9914,-9.0128,-9.0176,-9.0319,-9.0788,-9.0829,0,0,0,-8.909,-8.9201,-8.9289,-8.9432,-8.9554,-8.9663,-8.9765,-8.982,-9.0019,-8.9785,-9.0219,-9.0248,-9.0333,-9.0394,-9.043,-9.0503,-9.0047,-9.0046,-9.0046,-8.9459,-8.9484,-8.9741,-8.9804,-8.9943,-9.0046,-9.0161,-9.0253,-9.0236,-9.0338,-9.0408,-9.0689,-9.0761,-9.0788,-9.0864,-9.0477,-9.0478,-9.0478,-9.0478,-8.9866,-9.0027,-9.0001,-9.0241,-9.0265,-9.0467,-9.0574,-9.0556,-9.0745,-9.0639,-9.0715,-9.0596,-9.0832,-9.09,-9.0487,-9.0486,-9.0485,-9.0484,-9.0483,-9.011,-9.0191,-9.0257,-9.0467,-9.0626,-9.0681,-9.0865,-9.088,-9.0896,-9.0971,-9.1046,-9.1044,-9.1044,-9.1005,-9.1006,-9.1007,-9.1008,-9.1009,-9.101,-9.0337,-9.0408,-9.0562,-9.0711,-9.0805,-9.0931,-9.1037,-9.113,-9.1236,-9.1232,-9.1233,-9.1205,-9.0851,-9.0761,-9.1025,-9.1022,-9.102,-9.1019,-9.1018,-9.074,-9.0652,-9.0891,-9.0986,-9.1162,-9.1318,-9.1336,-9.1523,-9.1601,-9.1692,-9.1649,-9.1384,-9.1366,-9.1339,-9.1265,-9.1643,-9.1643,-9.1643,-9.1643,-9.0946,-9.0939,-9.1187,-9.1338,-9.1486,-9.1527,-9.1794,-9.1879,-9.1951,-9.2001,-9.1949,-9.1852,-9.1823,-9.1822,-9.1784,-9.1715,-9.22,-9.22,-9.2201,-9.1196,-9.1204,-9.143,-9.1502,-9.1641,-9.1759,-9.2011,-9.2183,-9.2247,-9.2223,-9.2041,-9.2017,-9.1861,-9.1809,-9.178,-9.1721,-9.1595,0,0]}]]